Time,TemperatureF,DewpointF,PressureIn,WindDirection,WindDirectionDegrees,WindSpeedMPH,WindSpeedGustMPH,Humidity,HourlyPrecipIn,Conditions,Clouds,dailyrainin,SoftwareType,DateUTC
2013-09-16 00:00:00,56.0,53.2,30.12,West,263,2.6,7.1,90,0.02,,SCT,0.04,VWS V14.00,2013-09-16 04:00:00,
2013-09-16 00:02:00,54.0,51.5,30.11,WSW,243,0.0,4.8,91,0.05,,OVC,0.00,VWS V14.00,2013-09-16 04:02:00,
2013-09-16 00:07:00,53.8,51.3,30.11,WSW,243,0.0,4.8,91,0.05,,OVC,0.01,VWS V14.00,2013-09-16 04:07:00,
2013-09-16 00:12:00,53.9,51.5,30.11,SSW,195,2.5,4.8,92,0.05,,OVC,0.01,VWS V14.00,2013-09-16 04:12:00,
2013-09-16 00:17:00,53.9,51.5,30.11,SW,231,2.2,4.8,92,0.05,,OVC,0.02,VWS V14.00,2013-09-16 04:17:00,
2013-09-16 00:22:00,53.9,51.6,30.11,SW,221,1.6,4.8,92,0.05,,OVC,0.02,VWS V14.00,2013-09-16 04:22:00,
2013-09-16 00:27:00,53.9,51.7,30.11,SW,225,2.0,4.8,92,0.06,,OVC,0.03,VWS V14.00,2013-09-16 04:27:00,
2013-09-16 00:29:00,53.9,51.7,30.11,WSW,240,1.8,4.8,92,0.05,,OVC,0.03,VWS V14.00,2013-09-16 04:29:00,
2013-09-16 00:30:00,54.8,52.0,30.12,WSW,250,2.2,6.3,90,0.05,,SCT,0.08,VWS V14.00,2013-09-16 04:30:00,
2013-09-16 00:37:00,53.9,51.8,30.11,SE,146,0.0,4.0,92,0.05,,OVC,0.03,VWS V14.00,2013-09-16 04:37:00,
2013-09-16 00:42:00,53.9,51.8,30.10,SW,222,2.9,4.3,93,0.04,,OVC,0.03,VWS V14.00,2013-09-16 04:42:00,
2013-09-16 00:47:00,54.0,52.0,30.11,SSW,197,0.7,4.5,93,0.04,,OVC,0.03,VWS V14.00,2013-09-16 04:47:00,
2013-09-16 00:52:00,54.0,52.0,30.11,SSW,208,1.6,4.5,93,0.04,,OVC,0.03,VWS V14.00,2013-09-16 04:52:00,
2013-09-16 00:58:00,54.1,52.2,30.11,SW,224,0.0,4.5,93,0.04,,OVC,0.04,VWS V14.00,2013-09-16 04:58:00,
2013-09-16 00:59:00,54.1,52.2,30.10,SW,224,0.0,4.5,93,0.04,,OVC,0.04,VWS V14.00,2013-09-16 04:59:00,
2013-09-16 01:08:00,54.1,52.2,30.11,SW,218,2.9,3.0,93,0.05,,OVC,0.05,VWS V14.00,2013-09-16 05:08:00,
2013-09-16 01:13:00,54.1,52.2,30.11,South,184,0.0,3.0,93,0.04,,OVC,0.05,VWS V14.00,2013-09-16 05:13:00,
2013-09-16 01:18:00,54.0,52.3,30.11,SW,215,1.4,5.2,94,0.05,,OVC,0.06,VWS V14.00,2013-09-16 05:18:00,
2013-09-16 01:23:00,54.1,52.4,30.11,WSW,245,1.7,5.2,94,0.05,,OVC,0.06,VWS V14.00,2013-09-16 05:23:00,
2013-09-16 01:28:00,54.2,52.5,30.11,WSW,252,2.3,5.2,94,0.04,,OVC,0.06,VWS V14.00,2013-09-16 05:28:00,
2013-09-16 01:30:00,53.9,51.7,30.11,WSW,240,1.8,4.8,92,0.05,,SCT,0.03,VWS V14.00,2013-09-16 05:30:00,
2013-09-16 01:33:00,54.3,52.7,30.11,SW,228,2.7,4.5,94,0.04,,OVC,0.06,VWS V14.00,2013-09-16 05:33:00,
2013-09-16 01:38:00,54.2,52.6,30.11,SSW,205,0.0,4.5,94,0.05,,OVC,0.07,VWS V14.00,2013-09-16 05:38:00,
2013-09-16 01:43:00,54.2,52.6,30.11,WSW,238,3.4,4.5,94,0.04,,OVC,0.07,VWS V14.00,2013-09-16 05:43:00,
2013-09-16 01:48:00,54.2,52.6,30.11,SW,229,2.9,5.5,94,0.04,,OVC,0.07,VWS V14.00,2013-09-16 05:48:00,
2013-09-16 01:53:00,54.3,52.7,30.11,SW,225,1.2,5.5,94,0.03,,OVC,0.07,VWS V14.00,2013-09-16 05:53:00,
2013-09-16 01:58:00,54.3,52.7,30.11,WSW,253,2.1,6.4,94,0.04,,OVC,0.08,VWS V14.00,2013-09-16 05:58:00,
2013-09-16 02:00:00,54.1,52.2,30.10,SW,224,0.0,4.5,93,0.04,,SCT,0.04,VWS V14.00,2013-09-16 06:00:00,
2013-09-16 02:03:00,54.3,52.8,30.11,WSW,253,2.5,4.2,94,0.04,,OVC,0.08,VWS V14.00,2013-09-16 06:03:00,
2013-09-16 02:08:00,54.3,52.8,30.11,West,267,2.6,4.8,94,0.04,,OVC,0.09,VWS V14.00,2013-09-16 06:08:00,
2013-09-16 02:13:00,54.3,52.8,30.10,SSW,197,3.5,5.8,95,0.04,,OVC,0.09,VWS V14.00,2013-09-16 06:13:00,
2013-09-16 02:18:00,54.3,52.8,30.11,WSW,252,2.6,6.0,95,0.05,,OVC,0.10,VWS V14.00,2013-09-16 06:18:00,
2013-09-16 02:23:00,54.1,52.6,30.10,WSW,239,4.5,6.3,95,0.04,,OVC,0.10,VWS V14.00,2013-09-16 06:23:00,
2013-09-16 02:28:00,54.2,52.7,30.10,West,271,2.0,6.3,95,0.04,,OVC,0.10,VWS V14.00,2013-09-16 06:28:00,
2013-09-16 02:30:00,54.1,52.5,30.11,SW,221,3.0,5.2,94,0.04,,SCT,0.06,VWS V14.00,2013-09-16 06:30:00,
2013-09-16 02:33:00,54.1,52.6,30.09,WSW,253,3.7,4.0,95,0.04,,OVC,0.10,VWS V14.00,2013-09-16 06:33:00,
2013-09-16 02:38:00,54.1,52.7,30.10,WSW,253,1.7,4.0,95,0.04,,OVC,0.11,VWS V14.00,2013-09-16 06:38:00,
2013-09-16 02:43:00,54.1,52.7,30.09,WSW,245,2.5,4.0,95,0.04,,OVC,0.11,VWS V14.00,2013-09-16 06:43:00,
2013-09-16 02:48:00,54.1,52.7,30.09,SSW,211,1.0,4.0,95,0.04,,OVC,0.11,VWS V14.00,2013-09-16 06:48:00,
2013-09-16 02:53:00,54.1,52.7,30.10,WSW,246,1.9,4.0,95,0.03,,OVC,0.11,VWS V14.00,2013-09-16 06:53:00,
2013-09-16 02:58:00,54.0,52.6,30.10,SW,215,2.1,4.0,95,0.03,,OVC,0.11,VWS V14.00,2013-09-16 06:58:00,
2013-09-16 03:00:00,54.2,52.6,30.11,SW,226,1.5,6.4,94,0.04,,SCT,0.08,VWS V14.00,2013-09-16 07:00:00,
2013-09-16 03:03:00,53.9,52.5,30.10,SW,236,1.8,3.9,95,0.03,,OVC,0.11,VWS V14.00,2013-09-16 07:03:00,
2013-09-16 03:08:00,53.9,52.5,30.10,SW,232,2.8,5.2,95,0.03,,OVC,0.11,VWS V14.00,2013-09-16 07:08:00,
2013-09-16 03:13:00,53.9,52.5,30.10,WSW,243,1.7,5.2,95,0.02,,OVC,0.11,VWS V14.00,2013-09-16 07:13:00,
2013-09-16 03:18:00,54.0,52.6,30.09,SW,218,1.6,5.9,95,0.02,,OVC,0.11,VWS V14.00,2013-09-16 07:18:00,
2013-09-16 03:23:00,53.8,52.4,30.09,SSW,211,2.9,5.9,95,0.02,,OVC,0.11,VWS V14.00,2013-09-16 07:23:00,
2013-09-16 03:28:00,53.9,52.5,30.09,South,184,4.0,6.0,95,0.02,,OVC,0.11,VWS V14.00,2013-09-16 07:28:00,
2013-09-16 03:30:00,54.2,52.7,30.10,SW,214,0.7,6.3,95,0.04,,SCT,0.10,VWS V14.00,2013-09-16 07:30:00,
2013-09-16 03:33:00,53.8,52.4,30.09,SW,229,2.7,4.4,95,0.02,,OVC,0.11,VWS V14.00,2013-09-16 07:33:00,
2013-09-16 03:38:00,53.8,52.4,30.09,WNW,291,1.9,5.6,95,0.02,,OVC,0.11,VWS V14.00,2013-09-16 07:38:00,
2013-09-16 03:43:00,53.8,52.4,30.09,WSW,238,2.2,5.6,95,0.01,,OVC,0.11,VWS V14.00,2013-09-16 07:43:00,
2013-09-16 03:48:00,53.6,52.3,30.10,WSW,239,3.7,6.2,95,0.01,,OVC,0.11,VWS V14.00,2013-09-16 07:48:00,
2013-09-16 03:53:00,53.8,52.5,30.10,South,176,3.5,6.2,95,0.01,,OVC,0.11,VWS V14.00,2013-09-16 07:53:00,
2013-09-16 03:58:00,53.8,52.5,30.10,SW,236,1.6,6.2,95,0.01,,OVC,0.11,VWS V14.00,2013-09-16 07:58:00,
2013-09-16 04:00:00,54.1,52.7,30.10,SW,217,1.3,4.0,95,0.03,,SCT,0.11,VWS V14.00,2013-09-16 08:00:00,
2013-09-16 04:03:00,53.8,52.5,30.09,West,271,2.9,7.2,95,0.02,,OVC,0.12,VWS V14.00,2013-09-16 08:03:00,
2013-09-16 04:08:00,53.9,52.6,30.10,WSW,248,0.0,7.2,95,0.02,,OVC,0.12,VWS V14.00,2013-09-16 08:08:00,
2013-09-16 04:13:00,53.9,52.6,30.10,WSW,240,2.3,7.2,95,0.02,,OVC,0.12,VWS V14.00,2013-09-16 08:13:00,
2013-09-16 04:18:00,53.9,52.6,30.09,SW,217,1.1,7.2,95,0.02,,OVC,0.12,VWS V14.00,2013-09-16 08:18:00,
2013-09-16 04:23:00,53.9,52.6,30.09,SSW,208,2.1,7.2,95,0.01,,OVC,0.12,VWS V14.00,2013-09-16 08:23:00,
2013-09-16 04:28:00,53.9,52.6,30.09,West,277,3.4,7.2,95,0.01,,OVC,0.12,VWS V14.00,2013-09-16 08:28:00,
2013-09-16 04:30:00,53.8,52.4,30.09,SW,228,2.0,6.0,95,0.02,,SCT,0.11,VWS V14.00,2013-09-16 08:30:00,
2013-09-16 04:33:00,53.2,51.8,30.10,NW,319,3.8,15.4,95,0.02,,OVC,0.13,VWS V14.00,2013-09-16 08:33:00,
2013-09-16 04:38:00,52.2,50.8,30.11,NNW,329,2.7,15.4,95,0.03,,OVC,0.14,VWS V14.00,2013-09-16 08:38:00,
2013-09-16 04:43:00,51.6,50.0,30.12,NNW,342,3.1,15.4,94,0.03,,OVC,0.14,VWS V14.00,2013-09-16 08:43:00,
2013-09-16 04:48:00,50.7,49.1,30.12,NW,316,5.2,15.4,94,0.03,,OVC,0.14,VWS V14.00,2013-09-16 08:48:00,
2013-09-16 04:53:00,50.5,49.0,30.12,NW,326,0.5,15.4,94,0.02,,OVC,0.14,VWS V14.00,2013-09-16 08:53:00,
2013-09-16 04:58:00,50.1,48.7,30.13,NNW,346,1.4,15.4,95,0.02,,OVC,0.14,VWS V14.00,2013-09-16 08:58:00,
2013-09-16 05:00:00,53.9,52.6,30.09,SW,224,0.0,6.2,95,0.01,,SCT,0.11,VWS V14.00,2013-09-16 09:00:00,
2013-09-16 05:03:00,49.9,48.5,30.13,North,11,0.0,5.8,95,0.03,,OVC,0.15,VWS V14.00,2013-09-16 09:03:00,
2013-09-16 05:08:00,49.8,48.4,30.13,WSW,253,0.0,8.0,95,0.03,,OVC,0.15,VWS V14.00,2013-09-16 09:08:00,
2013-09-16 05:13:00,49.6,48.2,30.13,NNW,345,2.8,8.0,95,0.02,,OVC,0.15,VWS V14.00,2013-09-16 09:13:00,
2013-09-16 05:18:00,49.3,47.9,30.14,NW,316,3.5,8.0,95,0.02,,OVC,0.15,VWS V14.00,2013-09-16 09:18:00,
2013-09-16 05:23:00,49.1,47.7,30.14,NW,307,5.9,8.0,95,0.02,,OVC,0.15,VWS V14.00,2013-09-16 09:23:00,
2013-09-16 05:28:00,49.0,47.7,30.14,NNW,328,3.7,8.0,95,0.02,,OVC,0.15,VWS V14.00,2013-09-16 09:28:00,
2013-09-16 05:30:00,54.0,52.7,30.09,NW,307,5.2,7.2,95,0.01,,SCT,0.12,VWS V14.00,2013-09-16 09:30:00,
2013-09-16 05:33:00,48.7,47.3,30.14,WNW,294,4.6,6.3,95,0.02,,OVC,0.15,VWS V14.00,2013-09-16 09:33:00,
2013-09-16 05:38:00,48.4,47.0,30.15,NW,307,0.0,8.2,95,0.02,,OVC,0.15,VWS V14.00,2013-09-16 09:38:00,
2013-09-16 05:43:00,48.1,46.7,30.15,NNE,27,3.7,8.2,95,0.02,,OVC,0.15,VWS V14.00,2013-09-16 09:43:00,
2013-09-16 05:48:00,48.0,46.7,30.15,North,10,0.0,8.2,95,0.01,,OVC,0.15,VWS V14.00,2013-09-16 09:48:00,
2013-09-16 05:53:00,47.9,46.6,30.16,NW,311,0.0,8.2,95,0.01,,OVC,0.15,VWS V14.00,2013-09-16 09:53:00,
2013-09-16 05:58:00,47.8,46.5,30.16,North,354,0.0,8.2,95,0.01,,OVC,0.15,VWS V14.00,2013-09-16 09:58:00,
2013-09-16 06:00:00,50.2,48.8,30.12,NNW,347,2.3,15.4,95,0.02,,SCT,0.14,VWS V14.00,2013-09-16 10:00:00,
2013-09-16 06:03:00,47.6,46.3,30.16,NNW,333,2.7,5.6,95,0.01,,OVC,0.15,VWS V14.00,2013-09-16 10:03:00,
2013-09-16 06:08:00,47.5,46.2,30.17,North,350,0.0,6.0,95,0.01,,OVC,0.15,VWS V14.00,2013-09-16 10:08:00,
2013-09-16 06:13:00,47.5,46.2,30.17,WSW,252,0.4,7.0,95,0.01,,OVC,0.15,VWS V14.00,2013-09-16 10:13:00,
2013-09-16 06:18:00,47.3,46.0,30.18,NNW,343,1.9,7.0,95,0.01,,OVC,0.15,VWS V14.00,2013-09-16 10:18:00,
2013-09-16 06:23:00,47.3,46.0,30.18,WNW,285,0.0,7.0,95,0.01,,OVC,0.15,VWS V14.00,2013-09-16 10:23:00,
2013-09-16 06:28:00,47.3,46.0,30.18,NNW,343,0.7,7.0,95,0.01,,OVC,0.15,VWS V14.00,2013-09-16 10:28:00,
2013-09-16 06:30:00,49.0,47.7,30.14,NNW,333,2.3,8.0,95,0.02,,SCT,0.15,VWS V14.00,2013-09-16 10:30:00,
2013-09-16 06:33:00,47.1,45.8,30.19,North,354,1.7,6.5,95,0.01,,OVC,0.15,VWS V14.00,2013-09-16 10:33:00,
2013-09-16 06:38:00,47.2,45.9,30.19,NW,326,0.0,6.5,95,0.01,,OVC,0.15,VWS V14.00,2013-09-16 10:38:00,
2013-09-16 06:43:00,47.3,46.0,30.20,North,359,2.7,6.5,95,0.01,,OVC,0.15,VWS V14.00,2013-09-16 10:43:00,
2013-09-16 06:48:00,47.1,45.8,30.20,NNW,342,0.0,6.5,95,0.01,,OVC,0.15,VWS V14.00,2013-09-16 10:48:00,
2013-09-16 06:53:00,47.1,45.8,30.20,NW,308,0.0,6.6,95,0.00,,OVC,0.15,VWS V14.00,2013-09-16 10:53:00,
2013-09-16 06:58:00,47.1,45.9,30.20,NW,323,0.0,6.6,95,0.00,,OVC,0.15,VWS V14.00,2013-09-16 10:58:00,
2013-09-16 07:00:00,47.7,46.4,30.16,North,354,0.0,8.2,95,0.01,,SCT,0.15,VWS V14.00,2013-09-16 11:00:00,
2013-09-16 07:03:00,46.9,45.7,30.21,North,359,2.0,4.5,95,0.00,,OVC,0.15,VWS V14.00,2013-09-16 11:03:00,
2013-09-16 07:08:00,46.9,45.7,30.21,NNE,13,3.3,4.5,96,0.01,,OVC,0.16,VWS V14.00,2013-09-16 11:08:00,
2013-09-16 07:13:00,46.9,45.7,30.21,NNW,340,1.6,4.5,96,0.01,,OVC,0.16,VWS V14.00,2013-09-16 11:13:00,
2013-09-16 07:18:00,47.1,45.9,30.21,WSW,248,0.0,4.5,96,0.01,,OVC,0.16,VWS V14.00,2013-09-16 11:18:00,
2013-09-16 07:23:00,46.9,45.7,30.22,North,6,0.0,5.6,96,0.01,,OVC,0.16,VWS V14.00,2013-09-16 11:23:00,
2013-09-16 07:28:00,46.9,45.7,30.22,NNW,329,0.0,5.8,96,0.01,,OVC,0.16,VWS V14.00,2013-09-16 11:28:00,
2013-09-16 07:30:00,47.1,45.8,30.18,NNW,343,0.0,7.0,95,0.01,,SCT,0.15,VWS V14.00,2013-09-16 11:30:00,
2013-09-16 07:33:00,46.9,45.7,30.22,NNW,343,3.2,5.4,96,0.01,,OVC,0.16,VWS V14.00,2013-09-16 11:33:00,
2013-09-16 07:38:00,46.9,45.7,30.22,NNW,332,0.0,5.4,96,0.01,,OVC,0.16,VWS V14.00,2013-09-16 11:38:00,
2013-09-16 07:43:00,46.9,45.7,30.22,NE,35,2.7,5.4,96,0.01,,OVC,0.16,VWS V14.00,2013-09-16 11:43:00,
2013-09-16 07:48:00,46.9,45.7,30.22,North,0,3.7,7.1,96,0.01,,OVC,0.16,VWS V14.00,2013-09-16 11:48:00,
2013-09-16 07:53:00,46.9,45.7,30.23,NNE,32,3.9,7.1,96,0.01,,OVC,0.16,VWS V14.00,2013-09-16 11:53:00,
2013-09-16 07:58:00,46.9,45.8,30.23,North,8,1.4,7.1,96,0.01,,OVC,0.16,VWS V14.00,2013-09-16 11:58:00,
2013-09-16 08:00:00,47.0,45.8,30.20,NW,323,0.0,6.6,95,0.00,,SCT,0.15,VWS V14.00,2013-09-16 12:00:00,
2013-09-16 08:03:00,47.0,45.9,30.23,NW,325,0.0,1.7,96,0.01,,OVC,0.16,VWS V14.00,2013-09-16 12:03:00,
2013-09-16 08:09:00,47.0,45.8,30.23,NNW,338,3.7,4.9,96,0.00,,OVC,0.16,VWS V14.00,2013-09-16 12:09:00,
2013-09-16 08:14:00,46.8,45.6,30.23,NNE,30,2.1,6.0,96,0.00,,OVC,0.16,VWS V14.00,2013-09-16 12:14:00,
2013-09-16 08:19:00,46.8,45.6,30.23,NNW,333,0.9,6.6,96,0.00,,OVC,0.16,VWS V14.00,2013-09-16 12:19:00,
2013-09-16 08:24:00,46.8,45.6,30.23,North,6,3.9,6.6,96,0.00,,OVC,0.16,VWS V14.00,2013-09-16 12:24:00,
2013-09-16 08:29:00,46.7,45.5,30.23,NNW,328,0.0,6.7,96,0.00,,OVC,0.16,VWS V14.00,2013-09-16 12:29:00,
2013-09-16 08:30:00,47.0,45.8,30.22,NNW,329,0.0,5.8,96,0.01,,SCT,0.16,VWS V14.00,2013-09-16 12:30:00,
2013-09-16 08:34:00,46.7,45.5,30.23,North,4,0.0,5.0,96,0.00,,OVC,0.16,VWS V14.00,2013-09-16 12:34:00,
2013-09-16 08:39:00,46.8,45.6,30.24,NE,56,4.8,5.0,96,0.00,,OVC,0.16,VWS V14.00,2013-09-16 12:39:00,
2013-09-16 08:44:00,46.9,45.7,30.24,NNW,335,0.0,6.7,95,0.00,,OVC,0.16,VWS V14.00,2013-09-16 12:44:00,
2013-09-16 08:49:00,46.9,45.6,30.24,NNE,24,0.0,6.7,95,0.00,,OVC,0.16,VWS V14.00,2013-09-16 12:49:00,
2013-09-16 08:54:00,46.8,45.5,30.25,NNE,25,2.3,6.7,95,0.00,,OVC,0.16,VWS V14.00,2013-09-16 12:54:00,
2013-09-16 08:59:00,47.0,45.7,30.25,North,7,0.0,6.7,95,0.00,,OVC,0.16,VWS V14.00,2013-09-16 12:59:00,
2013-09-16 09:00:00,46.9,45.8,30.23,NNE,13,0.6,7.1,96,0.01,,SCT,0.16,VWS V14.00,2013-09-16 13:00:00,
2013-09-16 09:04:00,47.1,45.8,30.25,NW,307,2.6,5.8,95,0.00,,OVC,0.16,VWS V14.00,2013-09-16 13:04:00,
2013-09-16 09:09:00,47.2,45.8,30.25,North,354,0.6,6.0,95,0.00,,OVC,0.16,VWS V14.00,2013-09-16 13:09:00,
2013-09-16 09:14:00,47.2,45.8,30.25,NW,309,4.0,6.0,95,0.00,,OVC,0.16,VWS V14.00,2013-09-16 13:14:00,
2013-09-16 09:19:00,46.9,44.8,30.26,NNW,336,3.3,6.0,92,0.00,,OVC,0.16,VWS V14.00,2013-09-16 13:19:00,
2013-09-16 09:24:00,46.7,44.3,30.26,NW,309,4.9,11.7,91,0.00,,OVC,0.16,VWS V14.00,2013-09-16 13:24:00,
2013-09-16 09:29:00,46.3,43.4,30.26,NW,319,3.4,3.8,89,0.00,,OVC,0.16,VWS V14.00,2013-09-16 13:29:00,
2013-09-16 09:30:00,46.7,45.5,30.23,NNW,328,0.0,6.7,96,0.00,,SCT,0.16,VWS V14.00,2013-09-16 13:30:00,
2013-09-16 09:34:00,46.2,43.0,30.26,NNE,30,6.8,12.6,88,0.00,,OVC,0.16,VWS V14.00,2013-09-16 13:34:00,
2013-09-16 09:39:00,46.2,43.0,30.26,NNE,28,3.8,12.6,89,0.00,,OVC,0.16,VWS V14.00,2013-09-16 13:39:00,
2013-09-16 09:44:00,46.3,43.2,30.26,NNE,15,6.2,12.6,89,0.00,,OVC,0.16,VWS V14.00,2013-09-16 13:44:00,
2013-09-16 09:49:00,46.5,43.3,30.26,NNW,338,0.0,12.6,88,0.00,,OVC,0.16,VWS V14.00,2013-09-16 13:49:00,
2013-09-16 09:54:00,46.8,44.1,30.27,NNE,27,2.4,12.6,90,0.00,,OVC,0.16,VWS V14.00,2013-09-16 13:54:00,
2013-09-16 09:59:00,46.9,44.0,30.27,NNW,338,1.1,12.6,90,0.00,,OVC,0.16,VWS V14.00,2013-09-16 13:59:00,
2013-09-16 10:00:00,47.0,45.7,30.25,NNE,18,0.7,6.7,95,0.00,,SCT,0.16,VWS V14.00,2013-09-16 14:00:00,
2013-09-16 10:04:00,47.1,44.2,30.27,North,7,1.0,12.6,90,0.00,,OVC,0.16,VWS V14.00,2013-09-16 14:04:00,
2013-09-16 10:09:00,46.9,43.4,30.27,NNW,332,1.7,12.6,88,0.00,,OVC,0.16,VWS V14.00,2013-09-16 14:09:00,
2013-09-16 10:14:00,47.0,43.6,30.28,NNW,342,0.0,12.6,88,0.00,,OVC,0.16,VWS V14.00,2013-09-16 14:14:00,
2013-09-16 10:19:00,47.0,43.5,30.28,NNW,343,1.4,12.6,88,0.00,,OVC,0.16,VWS V14.00,2013-09-16 14:19:00,
2013-09-16 10:24:00,47.1,43.3,30.28,NNW,342,0.0,12.6,87,0.00,,OVC,0.16,VWS V14.00,2013-09-16 14:24:00,
2013-09-16 10:29:00,47.3,43.5,30.28,NNW,346,0.0,12.6,87,0.00,,OVC,0.16,VWS V14.00,2013-09-16 14:29:00,
2013-09-16 10:30:00,46.3,43.4,30.26,NNW,332,3.8,11.7,89,0.00,,SCT,0.16,VWS V14.00,2013-09-16 14:30:00,
2013-09-16 10:34:00,47.4,43.2,30.28,NE,41,2.8,8.5,85,0.00,,OVC,0.16,VWS V14.00,2013-09-16 14:34:00,
2013-09-16 10:39:00,47.3,42.6,30.28,North,356,2.5,8.5,84,0.00,,OVC,0.16,VWS V14.00,2013-09-16 14:39:00,
2013-09-16 10:44:00,47.4,42.9,30.28,NNW,329,2.6,9.6,84,0.00,,OVC,0.16,VWS V14.00,2013-09-16 14:44:00,
2013-09-16 10:49:00,47.4,43.1,30.28,WNW,290,0.9,9.6,85,0.00,,OVC,0.16,VWS V14.00,2013-09-16 14:49:00,
2013-09-16 10:54:00,47.5,42.6,30.29,NNE,18,4.0,9.6,83,0.00,,OVC,0.16,VWS V14.00,2013-09-16 14:54:00,
2013-09-16 10:59:00,47.7,42.9,30.29,NE,38,1.3,9.6,83,0.00,,OVC,0.16,VWS V14.00,2013-09-16 14:59:00,
2013-09-16 11:04:00,47.9,43.0,30.29,NNE,30,5.0,7.2,83,0.00,,OVC,0.16,VWS V14.00,2013-09-16 15:04:00,
2013-09-16 11:09:00,48.1,43.0,30.29,NE,34,4.2,8.8,82,0.00,,OVC,0.16,VWS V14.00,2013-09-16 15:09:00,
2013-09-16 11:14:00,48.4,42.9,30.29,NE,39,5.0,8.8,81,0.00,,OVC,0.16,VWS V14.00,2013-09-16 15:14:00,
2013-09-16 11:19:00,48.3,42.8,30.29,North,11,3.1,8.8,81,0.00,,OVC,0.16,VWS V14.00,2013-09-16 15:19:00,
2013-09-16 11:24:00,48.6,43.4,30.29,North,350,1.0,8.8,82,0.00,,OVC,0.16,VWS V14.00,2013-09-16 15:24:00,
2013-09-16 11:29:00,48.5,42.6,30.29,North,359,3.0,4.0,80,0.00,,OVC,0.16,VWS V14.00,2013-09-16 15:29:00,
2013-09-16 11:30:00,47.3,43.6,30.28,NNW,346,0.0,12.6,87,0.00,,SCT,0.16,VWS V14.00,2013-09-16 15:30:00,
2013-09-16 11:34:00,48.5,42.8,30.29,NE,44,5.7,11.0,80,0.00,,OVC,0.16,VWS V14.00,2013-09-16 15:34:00,
2013-09-16 11:39:00,48.5,42.4,30.29,NE,46,4.0,11.0,79,0.00,,OVC,0.16,VWS V14.00,2013-09-16 15:39:00,
2013-09-16 11:44:00,48.5,42.3,30.29,North,3,3.1,11.0,79,0.00,,OVC,0.16,VWS V14.00,2013-09-16 15:44:00,
2013-09-16 11:49:00,48.6,42.6,30.29,NNE,15,3.2,11.0,80,0.00,,OVC,0.16,VWS V14.00,2013-09-16 15:49:00,
2013-09-16 11:54:00,49.0,42.2,30.29,North,359,4.0,11.0,77,0.00,,OVC,0.16,VWS V14.00,2013-09-16 15:54:00,
2013-09-16 11:59:00,49.3,42.2,30.29,NNE,31,8.1,8.1,76,0.00,,OVC,0.16,VWS V14.00,2013-09-16 15:59:00,
2013-09-16 12:00:00,47.7,42.9,30.29,NE,38,1.3,9.6,83,0.00,,SCT,0.16,VWS V14.00,2013-09-16 16:00:00,
2013-09-16 12:04:00,49.2,41.9,30.29,NW,326,2.7,8.1,76,0.00,,OVC,0.16,VWS V14.00,2013-09-16 16:04:00,
2013-09-16 12:09:00,49.0,42.0,30.30,NW,325,4.2,9.0,77,0.00,,OVC,0.16,VWS V14.00,2013-09-16 16:09:00,
2013-09-16 12:14:00,48.9,42.0,30.30,NNE,32,5.2,11.1,77,0.00,,OVC,0.16,VWS V14.00,2013-09-16 16:14:00,
2013-09-16 12:19:00,48.9,41.6,30.30,North,356,2.9,11.1,76,0.00,,OVC,0.16,VWS V14.00,2013-09-16 16:19:00,
2013-09-16 12:24:00,48.8,40.8,30.30,NW,315,4.7,11.1,74,0.00,,OVC,0.16,VWS V14.00,2013-09-16 16:24:00,
2013-09-16 12:29:00,48.7,41.2,30.30,NW,305,7.1,7.1,75,0.00,,OVC,0.16,VWS V14.00,2013-09-16 16:29:00,
2013-09-16 12:30:00,48.6,42.7,30.29,North,359,4.0,8.8,80,0.00,,SCT,0.16,VWS V14.00,2013-09-16 16:30:00,
2013-09-16 12:34:00,48.7,41.1,30.30,NNW,335,2.3,7.1,75,0.00,,OVC,0.16,VWS V14.00,2013-09-16 16:34:00,
2013-09-16 12:39:00,48.9,41.2,30.31,NE,41,6.3,7.9,75,0.00,,OVC,0.16,VWS V14.00,2013-09-16 16:39:00,
2013-09-16 12:44:00,49.2,41.1,30.31,NW,311,1.6,10.3,74,0.00,,OVC,0.16,VWS V14.00,2013-09-16 16:44:00,
2013-09-16 12:49:00,49.5,41.6,30.31,NNW,338,3.3,10.3,74,0.00,,OVC,0.16,VWS V14.00,2013-09-16 16:49:00,
2013-09-16 12:54:00,49.2,40.0,30.31,NNE,28,8.3,10.3,70,0.00,,OVC,0.16,VWS V14.00,2013-09-16 16:54:00,
2013-09-16 12:59:00,49.4,41.5,30.31,NNW,335,2.2,3.9,74,0.00,,OVC,0.16,VWS V14.00,2013-09-16 16:59:00,
2013-09-16 13:00:00,49.2,42.1,30.29,NNE,31,3.4,11.6,76,0.00,,SCT,0.16,VWS V14.00,2013-09-16 17:00:00,
2013-09-16 13:04:00,49.7,41.2,30.31,NNE,17,2.0,7.0,72,0.00,,OVC,0.16,VWS V14.00,2013-09-16 17:04:00,
2013-09-16 13:09:00,50.0,41.7,30.31,NW,315,3.2,9.4,73,0.00,,OVC,0.16,VWS V14.00,2013-09-16 17:09:00,
2013-09-16 13:14:00,49.9,40.1,30.31,NW,322,4.6,9.4,69,0.00,,OVC,0.16,VWS V14.00,2013-09-16 17:14:00,
2013-09-16 13:19:00,50.0,41.7,30.31,North,354,1.6,9.4,73,0.00,,OVC,0.16,VWS V14.00,2013-09-16 17:19:00,
2013-09-16 13:24:00,50.3,39.8,30.30,North,1,4.4,9.4,67,0.00,,OVC,0.16,VWS V14.00,2013-09-16 17:24:00,
2013-09-16 13:29:00,50.6,39.8,30.30,NW,311,1.3,2.1,66,0.00,,OVC,0.16,VWS V14.00,2013-09-16 17:29:00,
2013-09-16 13:30:00,48.7,41.2,30.30,NNW,339,4.2,11.1,75,0.00,,SCT,0.16,VWS V14.00,2013-09-16 17:30:00,
2013-09-16 13:34:00,50.7,40.6,30.30,North,353,2.1,8.3,68,0.00,,OVC,0.16,VWS V14.00,2013-09-16 17:34:00,
2013-09-16 13:39:00,51.1,41.2,30.30,NW,325,3.9,8.3,69,0.00,,OVC,0.16,VWS V14.00,2013-09-16 17:39:00,
2013-09-16 13:44:00,51.4,40.9,30.30,NW,309,2.5,8.3,67,0.00,,OVC,0.16,VWS V14.00,2013-09-16 17:44:00,
2013-09-16 13:49:00,51.7,40.2,30.30,WNW,302,1.7,8.3,65,0.00,,OVC,0.16,VWS V14.00,2013-09-16 17:49:00,
2013-09-16 13:54:00,51.8,40.8,30.30,NNE,30,1.3,8.3,66,0.00,,OVC,0.16,VWS V14.00,2013-09-16 17:54:00,
2013-09-16 13:59:00,52.4,40.9,30.30,NE,52,5.3,7.1,65,0.00,,OVC,0.16,VWS V14.00,2013-09-16 17:59:00,
2013-09-16 14:00:00,49.4,41.3,30.31,NNE,21,3.9,10.3,74,0.00,,SCT,0.16,VWS V14.00,2013-09-16 18:00:00,
2013-09-16 14:04:00,52.0,40.4,30.30,NNE,13,5.8,8.6,64,0.00,,OVC,0.16,VWS V14.00,2013-09-16 18:04:00,
2013-09-16 14:09:00,51.4,39.7,30.30,NW,307,4.0,8.6,64,0.00,,OVC,0.16,VWS V14.00,2013-09-16 18:09:00,
2013-09-16 14:14:00,51.9,39.8,30.30,NNE,31,3.0,8.6,63,0.00,,OVC,0.16,VWS V14.00,2013-09-16 18:14:00,
2013-09-16 14:19:00,52.3,40.2,30.30,NNE,25,2.0,8.6,63,0.00,,OVC,0.16,VWS V14.00,2013-09-16 18:19:00,
2013-09-16 14:24:00,52.6,39.1,30.30,NNW,330,1.1,8.6,60,0.00,,OVC,0.16,VWS V14.00,2013-09-16 18:24:00,
2013-09-16 14:29:00,52.9,39.2,30.30,NNE,22,4.0,4.3,60,0.00,,OVC,0.16,VWS V14.00,2013-09-16 18:29:00,
2013-09-16 14:30:00,50.5,39.4,30.30,NNW,330,1.9,9.4,66,0.00,,SCT,0.16,VWS V14.00,2013-09-16 18:30:00,
2013-09-16 14:34:00,53.1,39.5,30.30,NE,45,4.7,7.3,60,0.00,,OVC,0.16,VWS V14.00,2013-09-16 18:34:00,
2013-09-16 14:39:00,53.0,39.9,30.30,NW,321,2.5,7.3,61,0.00,,OVC,0.16,VWS V14.00,2013-09-16 18:39:00,
2013-09-16 14:44:00,53.0,38.6,30.30,North,356,0.0,7.7,58,0.00,,OVC,0.16,VWS V14.00,2013-09-16 18:44:00,
2013-09-16 14:49:00,53.6,39.8,30.30,North,359,1.7,9.4,60,0.00,,OVC,0.16,VWS V14.00,2013-09-16 18:49:00,
2013-09-16 14:54:00,53.5,38.4,30.31,NW,319,3.3,9.7,56,0.00,,OVC,0.16,VWS V14.00,2013-09-16 18:54:00,
2013-09-16 14:59:00,53.4,38.4,30.30,NNW,335,2.2,2.7,57,0.00,,OVC,0.16,VWS V14.00,2013-09-16 18:59:00,
2013-09-16 15:00:00,52.4,40.9,30.30,NE,49,5.5,8.9,65,0.00,,SCT,0.16,VWS V14.00,2013-09-16 19:00:00,
2013-09-16 15:04:00,53.2,38.4,30.31,NNE,25,3.2,8.9,57,0.00,,OVC,0.16,VWS V14.00,2013-09-16 19:04:00,
2013-09-16 15:09:00,53.0,37.9,30.31,NNW,346,3.2,8.9,56,0.00,,OVC,0.16,VWS V14.00,2013-09-16 19:09:00,
2013-09-16 15:14:00,52.3,38.2,30.31,NNW,330,3.2,8.9,58,0.00,,OVC,0.16,VWS V14.00,2013-09-16 19:14:00,
2013-09-16 15:19:00,52.2,38.5,30.31,NNW,346,3.4,8.9,59,0.00,,OVC,0.16,VWS V14.00,2013-09-16 19:19:00,
2013-09-16 15:24:00,52.6,39.0,30.31,NNE,22,2.9,8.9,60,0.00,,OVC,0.16,VWS V14.00,2013-09-16 19:24:00,
2013-09-16 15:30:00,53.1,40.4,30.31,NW,311,3.2,5.8,62,0.00,,OVC,0.16,VWS V14.00,2013-09-16 19:30:00,
2013-09-16 15:35:00,53.1,38.7,30.31,NNE,31,2.7,9.0,58,0.00,,OVC,0.16,VWS V14.00,2013-09-16 19:35:00,
2013-09-16 15:40:00,53.0,38.1,30.31,North,7,7.5,9.1,57,0.00,,OVC,0.16,VWS V14.00,2013-09-16 19:40:00,
2013-09-16 15:45:00,52.9,38.8,30.31,NNE,17,0.4,9.1,59,0.00,,OVC,0.16,VWS V14.00,2013-09-16 19:45:00,
2013-09-16 15:50:00,53.5,39.5,30.31,WNW,291,0.4,9.1,59,0.00,,OVC,0.16,VWS V14.00,2013-09-16 19:50:00,
2013-09-16 15:55:00,53.8,38.3,30.31,NW,318,4.0,9.1,56,0.00,,OVC,0.16,VWS V14.00,2013-09-16 19:55:00,
2013-09-16 16:00:00,53.9,39.8,30.30,NNW,345,2.3,4.7,59,0.02,,OVC,0.16,VWS V14.00,2013-09-16 20:00:00,
2013-09-16 16:05:00,53.2,37.6,30.30,NNW,346,3.5,9.3,55,0.02,,OVC,0.16,VWS V14.00,2013-09-16 20:05:00,
2013-09-16 16:10:00,53.2,37.8,30.31,NNW,332,1.0,9.3,56,0.02,,OVC,0.16,VWS V14.00,2013-09-16 20:10:00,
2013-09-16 16:15:00,53.4,38.3,30.31,NW,311,3.7,9.3,56,0.02,,OVC,0.16,VWS V14.00,2013-09-16 20:15:00,
2013-09-16 16:20:00,53.6,39.6,30.31,West,280,2.4,9.3,59,0.02,,OVC,0.16,VWS V14.00,2013-09-16 20:20:00,
2013-09-16 16:25:00,53.7,38.1,30.31,NW,312,2.6,9.3,55,0.01,,OVC,0.16,VWS V14.00,2013-09-16 20:25:00,
2013-09-16 16:30:00,54.0,39.6,30.31,NNW,346,0.0,1.9,58,0.01,,OVC,0.16,VWS V14.00,2013-09-16 20:30:00,
2013-09-16 16:35:00,53.7,39.1,30.31,WNW,298,0.8,5.7,58,0.01,,OVC,0.16,VWS V14.00,2013-09-16 20:35:00,
2013-09-16 16:40:00,53.4,38.2,30.31,NNW,333,2.6,5.9,56,0.01,,OVC,0.16,VWS V14.00,2013-09-16 20:40:00,
2013-09-16 16:45:00,53.0,38.6,30.31,NW,312,0.0,5.9,58,0.01,,OVC,0.16,VWS V14.00,2013-09-16 20:45:00,
2013-09-16 16:50:00,52.6,38.2,30.31,West,281,0.0,5.9,58,0.01,,OVC,0.16,VWS V14.00,2013-09-16 20:50:00,
2013-09-16 16:55:00,53.0,38.3,30.32,North,350,1.9,5.9,57,0.01,,OVC,0.16,VWS V14.00,2013-09-16 20:55:00,
2013-09-16 17:00:00,53.2,37.7,30.32,NNE,13,1.6,4.2,56,0.01,,OVC,0.16,VWS V14.00,2013-09-16 21:00:00,
2013-09-16 17:05:00,53.3,37.2,30.32,NW,318,2.4,8.3,54,0.01,,OVC,0.16,VWS V14.00,2013-09-16 21:05:00,
2013-09-16 17:10:00,53.4,38.2,30.32,NE,44,4.3,8.3,56,0.01,,OVC,0.16,VWS V14.00,2013-09-16 21:10:00,
2013-09-16 17:15:00,53.2,37.5,30.33,NNW,340,2.7,10.6,55,0.01,,OVC,0.16,VWS V14.00,2013-09-16 21:15:00,
2013-09-16 17:20:00,53.4,38.6,30.33,NNE,14,5.5,10.6,57,0.01,,OVC,0.16,VWS V14.00,2013-09-16 21:20:00,
2013-09-16 17:25:00,53.5,37.8,30.33,NW,326,0.5,10.6,55,0.01,,OVC,0.16,VWS V14.00,2013-09-16 21:25:00,
2013-09-16 17:30:00,53.3,37.2,30.33,NNW,347,0.7,4.5,54,0.00,,OVC,0.16,VWS V14.00,2013-09-16 21:30:00,
2013-09-16 17:35:00,52.9,37.0,30.34,NE,45,3.2,7.3,54,0.00,,OVC,0.16,VWS V14.00,2013-09-16 21:35:00,
2013-09-16 17:40:00,52.2,37.2,30.34,NW,326,0.6,8.5,56,0.00,,OVC,0.16,VWS V14.00,2013-09-16 21:40:00,
2013-09-16 17:45:00,51.6,37.5,30.34,NW,305,0.2,8.5,58,0.00,,OVC,0.16,VWS V14.00,2013-09-16 21:45:00,
2013-09-16 17:50:00,51.0,37.5,30.34,NNW,328,0.0,8.5,60,0.00,,OVC,0.16,VWS V14.00,2013-09-16 21:50:00,
2013-09-16 17:55:00,51.0,38.1,30.34,NNW,328,0.0,8.5,61,0.00,,OVC,0.16,VWS V14.00,2013-09-16 21:55:00,
2013-09-16 18:00:00,51.3,38.7,30.34,North,357,1.6,3.4,62,0.00,,OVC,0.16,VWS V14.00,2013-09-16 22:00:00,
2013-09-16 18:05:00,51.6,37.8,30.35,NNW,332,3.1,5.5,59,0.00,,OVC,0.16,VWS V14.00,2013-09-16 22:05:00,
2013-09-16 18:10:00,51.9,36.9,30.35,NE,46,1.7,6.9,56,0.00,,OVC,0.16,VWS V14.00,2013-09-16 22:10:00,
2013-09-16 18:15:00,52.1,38.0,30.35,North,0,0.5,7.4,58,0.00,,OVC,0.16,VWS V14.00,2013-09-16 22:15:00,
2013-09-16 18:20:00,52.0,37.7,30.35,NW,322,0.0,7.6,58,0.00,,OVC,0.16,VWS V14.00,2013-09-16 22:20:00,
2013-09-16 18:25:00,52.0,38.3,30.35,NNW,340,0.0,7.6,59,0.00,,FEW,0.16,VWS V14.00,2013-09-16 22:25:00,
2013-09-16 18:30:00,51.6,38.1,30.36,NW,307,0.0,0.2,60,0.00,,FEW,0.16,VWS V14.00,2013-09-16 22:30:00,
2013-09-16 18:35:00,51.2,38.1,30.36,NNW,335,0.0,1.8,61,0.00,,FEW,0.16,VWS V14.00,2013-09-16 22:35:00,
2013-09-16 18:40:00,50.9,38.7,30.36,NNW,335,0.0,1.8,63,0.00,,FEW,0.16,VWS V14.00,2013-09-16 22:40:00,
2013-09-16 18:45:00,50.5,38.7,30.36,NNW,335,0.0,1.8,64,0.00,,FEW,0.16,VWS V14.00,2013-09-16 22:45:00,
2013-09-16 18:50:00,50.2,38.8,30.36,NNW,335,0.0,1.8,65,0.00,,FEW,0.16,VWS V14.00,2013-09-16 22:50:00,
2013-09-16 18:55:00,50.0,39.2,30.36,NNW,335,0.0,1.8,66,0.00,,FEW,0.16,VWS V14.00,2013-09-16 22:55:00,
2013-09-16 19:00:00,49.7,38.9,30.36,NNW,335,0.0,0.0,66,0.00,,FEW,0.16,VWS V14.00,2013-09-16 23:00:00,
2013-09-16 19:05:00,49.3,39.5,30.36,NNW,335,0.0,0.0,69,0.00,,FEW,0.16,VWS V14.00,2013-09-16 23:05:00,
2013-09-16 19:10:00,49.0,39.4,30.36,NNW,335,0.0,0.0,69,0.00,,FEW,0.16,VWS V14.00,2013-09-16 23:10:00,
2013-09-16 19:15:00,48.7,39.3,30.36,NNW,335,0.0,0.0,70,0.00,,FEW,0.16,VWS V14.00,2013-09-16 23:15:00,
2013-09-16 19:20:00,48.3,39.4,30.36,NNW,335,0.0,0.0,71,0.00,,FEW,0.16,VWS V14.00,2013-09-16 23:20:00,
2013-09-16 19:25:00,47.8,39.6,30.37,NNW,335,0.0,0.0,73,0.00,,FEW,0.16,VWS V14.00,2013-09-16 23:25:00,
2013-09-16 19:30:00,47.3,41.2,30.37,NNW,335,0.0,0.0,79,0.00,,FEW,0.16,VWS V14.00,2013-09-16 23:30:00,
2013-09-16 19:35:00,46.6,41.7,30.37,NNW,335,0.0,0.0,83,0.00,,FEW,0.16,VWS V14.00,2013-09-16 23:35:00,
2013-09-16 19:40:00,45.9,40.8,30.37,NNW,335,0.0,0.0,82,0.00,,FEW,0.16,VWS V14.00,2013-09-16 23:40:00,
2013-09-16 19:45:00,45.6,40.7,30.38,NNW,335,0.0,0.0,83,0.00,,FEW,0.16,VWS V14.00,2013-09-16 23:45:00,
2013-09-16 19:50:00,45.1,40.3,30.38,NNW,335,0.0,0.0,83,0.00,,FEW,0.16,VWS V14.00,2013-09-16 23:50:00,
2013-09-16 19:55:00,44.8,40.2,30.38,NNW,335,0.0,0.0,84,0.00,,FEW,0.16,VWS V14.00,2013-09-16 23:55:00,
2013-09-16 20:00:00,44.4,40.0,30.38,NNW,335,0.0,0.0,84,0.00,,FEW,0.16,VWS V14.00,2013-09-17 00:00:00,
2013-09-16 20:05:00,44.3,40.1,30.38,NNW,335,0.0,0.0,85,0.00,,FEW,0.16,VWS V14.00,2013-09-17 00:05:00,
2013-09-16 20:10:00,43.9,39.8,30.39,NNW,335,0.0,0.0,85,0.00,,FEW,0.16,VWS V14.00,2013-09-17 00:10:00,
2013-09-16 20:15:00,43.5,39.6,30.39,NNW,335,0.0,0.0,86,0.00,,FEW,0.16,VWS V14.00,2013-09-17 00:15:00,
2013-09-16 20:20:00,43.4,39.6,30.39,NNW,335,0.0,0.0,86,0.00,,FEW,0.16,VWS V14.00,2013-09-17 00:20:00,
2013-09-16 20:25:00,43.1,39.4,30.39,NNW,335,0.0,0.0,87,0.00,,FEW,0.16,VWS V14.00,2013-09-17 00:25:00,
2013-09-16 20:30:00,42.9,39.3,30.39,NNW,335,0.0,0.0,87,0.00,,SKC,0.16,VWS V14.00,2013-09-17 00:30:00,
2013-09-16 20:35:00,42.7,39.2,30.39,NNW,335,0.0,0.0,87,0.00,,SKC,0.16,VWS V14.00,2013-09-17 00:35:00,
2013-09-16 20:41:00,42.4,39.0,30.39,NNW,335,0.0,0.0,88,0.00,,SKC,0.16,VWS V14.00,2013-09-17 00:41:00,
2013-09-16 20:46:00,42.3,39.0,30.39,NNW,335,0.0,0.0,88,0.00,,SKC,0.16,VWS V14.00,2013-09-17 00:46:00,
2013-09-16 20:51:00,42.1,38.9,30.39,NNW,335,0.0,0.0,88,0.00,,SKC,0.16,VWS V14.00,2013-09-17 00:51:00,
2013-09-16 20:56:00,41.9,38.8,30.39,NNW,335,0.0,0.0,89,0.00,,SKC,0.16,VWS V14.00,2013-09-17 00:56:00,
2013-09-16 21:00:00,44.5,40.1,30.38,NNW,335,0.0,0.0,84,0.00,,SCT,0.16,VWS V14.00,2013-09-17 01:00:00,
2013-09-16 21:01:00,41.8,39.0,30.40,NNW,335,0.0,0.0,90,0.00,,SKC,0.16,VWS V14.00,2013-09-17 01:01:00,
2013-09-16 21:06:00,41.6,38.8,30.39,NNW,335,0.0,0.0,90,0.00,,SKC,0.16,VWS V14.00,2013-09-17 01:06:00,
2013-09-16 21:11:00,41.3,38.5,30.40,NNW,335,0.0,0.0,90,0.00,,SKC,0.16,VWS V14.00,2013-09-17 01:11:00,
2013-09-16 21:16:00,41.2,38.5,30.40,NNW,335,0.0,0.0,90,0.00,,SKC,0.16,VWS V14.00,2013-09-17 01:16:00,
2013-09-16 21:21:00,41.0,38.3,30.40,NNW,335,0.0,0.0,90,0.00,,SKC,0.16,VWS V14.00,2013-09-17 01:21:00,
2013-09-16 21:26:00,40.8,38.2,30.40,NNW,335,0.0,0.0,90,0.00,,SKC,0.16,VWS V14.00,2013-09-17 01:26:00,
2013-09-16 21:30:00,43.0,39.4,30.39,NNW,335,0.0,0.0,87,0.00,,SCT,0.16,VWS V14.00,2013-09-17 01:30:00,
2013-09-16 21:31:00,40.6,38.1,30.41,NNW,335,0.0,0.0,91,0.00,,SKC,0.16,VWS V14.00,2013-09-17 01:31:00,
2013-09-16 21:36:00,40.6,38.2,30.41,NNW,335,0.0,0.0,91,0.00,,SKC,0.16,VWS V14.00,2013-09-17 01:36:00,
2013-09-16 21:41:00,40.5,38.1,30.41,NNW,335,0.0,0.0,91,0.00,,SKC,0.16,VWS V14.00,2013-09-17 01:41:00,
2013-09-16 21:46:00,40.3,38.0,30.41,NNW,335,0.0,0.0,91,0.00,,SKC,0.16,VWS V14.00,2013-09-17 01:46:00,
2013-09-16 21:51:00,40.2,38.0,30.41,NNW,335,0.0,0.0,92,0.00,,SKC,0.16,VWS V14.00,2013-09-17 01:51:00,
2013-09-16 21:56:00,40.2,38.0,30.41,NNW,335,0.0,0.0,92,0.00,,SKC,0.16,VWS V14.00,2013-09-17 01:56:00,
2013-09-16 22:00:00,41.7,38.7,30.39,NNW,335,0.0,0.0,89,0.00,,SCT,0.16,VWS V14.00,2013-09-17 02:00:00,
2013-09-16 22:01:00,40.1,37.9,30.41,NNW,335,0.0,0.0,92,0.00,,SKC,0.16,VWS V14.00,2013-09-17 02:01:00,
2013-09-16 22:06:00,39.9,37.8,30.41,NNW,335,0.0,0.0,92,0.00,,SKC,0.16,VWS V14.00,2013-09-17 02:06:00,
2013-09-16 22:11:00,39.9,37.8,30.41,NNW,335,0.0,0.0,92,0.00,,SKC,0.16,VWS V14.00,2013-09-17 02:11:00,
2013-09-16 22:16:00,39.8,37.8,30.42,NNW,335,0.0,0.0,92,0.00,,SKC,0.16,VWS V14.00,2013-09-17 02:16:00,
2013-09-16 22:21:00,39.6,37.6,30.42,NNW,335,0.0,0.0,92,0.00,,SKC,0.16,VWS V14.00,2013-09-17 02:21:00,
2013-09-16 22:26:00,39.5,37.5,30.42,NNW,335,0.0,0.0,92,0.00,,SKC,0.16,VWS V14.00,2013-09-17 02:26:00,
2013-09-16 22:30:00,40.7,38.2,30.40,NNW,335,0.0,0.0,91,0.00,,SCT,0.16,VWS V14.00,2013-09-17 02:30:00,
2013-09-16 22:31:00,39.5,37.5,30.42,NNW,335,0.0,0.0,93,0.00,,SKC,0.16,VWS V14.00,2013-09-17 02:31:00,
2013-09-16 22:36:00,39.4,37.5,30.43,NNW,335,0.0,0.0,93,0.00,,SKC,0.16,VWS V14.00,2013-09-17 02:36:00,
2013-09-16 22:41:00,39.2,37.3,30.43,NNW,335,0.0,0.0,93,0.00,,SKC,0.16,VWS V14.00,2013-09-17 02:41:00,
2013-09-16 22:46:00,39.2,37.3,30.43,NNW,335,0.0,0.0,93,0.00,,SKC,0.16,VWS V14.00,2013-09-17 02:46:00,
2013-09-16 22:51:00,39.1,37.2,30.43,NNW,335,0.0,0.0,93,0.00,,SKC,0.16,VWS V14.00,2013-09-17 02:51:00,
2013-09-16 22:56:00,38.9,37.1,30.43,NNW,335,0.0,0.0,93,0.00,,SKC,0.16,VWS V14.00,2013-09-17 02:56:00,
2013-09-16 23:00:00,40.1,37.9,30.42,NNW,335,0.0,0.0,92,0.00,,SCT,0.16,VWS V14.00,2013-09-17 03:00:00,
2013-09-16 23:01:00,39.0,37.2,30.43,NNW,335,0.0,0.0,93,0.00,,SKC,0.16,VWS V14.00,2013-09-17 03:01:00,
2013-09-16 23:06:00,38.8,37.0,30.43,NNW,335,0.0,0.0,93,0.00,,SKC,0.16,VWS V14.00,2013-09-17 03:06:00,
2013-09-16 23:11:00,38.8,37.1,30.44,NNW,335,0.0,0.0,93,0.00,,SKC,0.16,VWS V14.00,2013-09-17 03:11:00,
2013-09-16 23:16:00,38.5,36.8,30.44,NNW,335,0.0,0.0,93,0.00,,SKC,0.16,VWS V14.00,2013-09-17 03:16:00,
2013-09-16 23:21:00,38.6,36.9,30.44,NNW,335,0.0,0.0,94,0.00,,SKC,0.16,VWS V14.00,2013-09-17 03:21:00,
2013-09-16 23:26:00,38.5,36.8,30.44,NNW,335,0.0,0.0,94,0.00,,SKC,0.16,VWS V14.00,2013-09-17 03:26:00,
2013-09-16 23:30:00,39.4,37.4,30.42,NNW,335,0.0,0.0,92,0.00,,SCT,0.16,VWS V14.00,2013-09-17 03:30:00,
2013-09-16 23:31:00,38.4,36.7,30.44,NNW,335,0.0,0.0,94,0.00,,SKC,0.16,VWS V14.00,2013-09-17 03:31:00,
2013-09-16 23:36:00,38.4,36.8,30.44,NNW,335,0.0,0.0,94,0.00,,SKC,0.16,VWS V14.00,2013-09-17 03:36:00,
2013-09-16 23:41:00,38.4,36.8,30.44,NNW,335,0.0,0.0,94,0.00,,SKC,0.16,VWS V14.00,2013-09-17 03:41:00,
2013-09-16 23:46:00,38.4,36.8,30.44,NNW,335,0.0,0.0,94,0.00,,SKC,0.16,VWS V14.00,2013-09-17 03:46:00,
2013-09-16 23:51:00,38.2,36.6,30.44,NNW,335,0.0,0.0,94,0.00,,SKC,0.16,VWS V14.00,2013-09-17 03:51:00,
2013-09-16 23:56:00,38.1,36.5,30.44,NNW,335,0.0,0.0,94,0.00,,SKC,0.16,VWS V14.00,2013-09-17 03:56:00,